LZB711 LBSF-DTNH

Flight info

Callsign LZB711
Flight time 1h 50m
Altitude 36000
Route NAPET T214 DOBAR DCT GOKEL DCT LODPA DCT MEGAN DCT TUPAL UG728 CBN UG727 DIDON G727 ATLEL
Aircraft A320/M-SDE3FGHIRWY/LB1

Departure

Time 2026-04-25 13:21
Airport Sofia Airport (LBSF)

Arrival

Time 2026-04-25 15:12
Airport Enfidha - Hammamet International Airport (DTNH)
Time Latitude Longitude Altitude Speed Heading
2026-04-25 11:42 42.69026 23.41094 1753 ft 0 kts 161°
2026-04-25 13:14 42.69025 23.41094 1780 ft 1 kts 161°
2026-04-25 13:14 42.68994 23.41110 1749 ft 8 kts 156°
2026-04-25 13:15 42.68985 23.41185 1745 ft 12 kts 52°
2026-04-25 13:15 42.69067 23.41222 1750 ft 16 kts 342°
2026-04-25 13:15 42.69178 23.41172 1745 ft 16 kts 342°
2026-04-25 13:15 42.69296 23.41173 1753 ft 19 kts 12°
2026-04-25 13:16 42.69399 23.41200 1749 ft 16 kts 11°
2026-04-25 13:16 42.69481 23.41264 1749 ft 15 kts 70°
2026-04-25 13:16 42.69478 23.41411 1748 ft 16 kts 96°
2026-04-25 13:16 42.69466 23.41585 1753 ft 21 kts 92°
2026-04-25 13:17 42.69457 23.41784 1753 ft 22 kts 95°
2026-04-25 13:17 42.69447 23.41932 1750 ft 25 kts 95°
2026-04-25 13:17 42.69432 23.42171 1753 ft 23 kts 94°
2026-04-25 13:17 42.69414 23.42493 1753 ft 28 kts 94°
2026-04-25 13:18 42.69398 23.42773 1753 ft 26 kts 95°
2026-04-25 13:18 42.69386 23.42948 1753 ft 29 kts 94°
2026-04-25 13:18 42.69369 23.43237 1753 ft 33 kts 94°
2026-04-25 13:18 42.69352 23.43523 1753 ft 28 kts 95°
2026-04-25 13:19 42.69336 23.43784 1750 ft 23 kts 95°
2026-04-25 13:19 42.69373 23.43943 1749 ft 16 kts 15°
2026-04-25 13:19 42.69473 23.43954 1752 ft 13 kts 356°
2026-04-25 13:19 42.69519 23.43908 1747 ft 13 kts 289°
2026-04-25 13:20 42.69522 23.43871 1751 ft 0 kts 275°
2026-04-25 13:20 42.69523 23.43862 1744 ft 6 kts 275°
2026-04-25 13:20 42.69545 23.43500 1750 ft 73 kts 274°
2026-04-25 13:21 42.69600 23.42541 1750 ft 128 kts 274°
2026-04-25 13:21 42.69680 23.41136 1839 ft 162 kts 273°
2026-04-25 13:21 42.69768 23.39669 2553 ft 156 kts 275°
2026-04-25 13:21 42.69881 23.38183 3144 ft 161 kts 283°
2026-04-25 13:22 42.70262 23.36714 3647 ft 170 kts 300°
2026-04-25 13:22 42.71009 23.35392 3992 ft 183 kts 317°
2026-04-25 13:22 42.71972 23.34150 4277 ft 200 kts 316°
2026-04-25 13:23 42.74105 23.31170 5067 ft 237 kts 310°
2026-04-25 13:23 42.75189 23.29369 5573 ft 255 kts 309°
2026-04-25 13:23 42.76269 23.27385 6206 ft 265 kts 297°
2026-04-25 13:23 42.76750 23.24960 6788 ft 270 kts 274°
2026-04-25 13:24 42.76800 23.22408 6945 ft 270 kts 272°
2026-04-25 13:24 42.76822 23.19845 6982 ft 270 kts 272°
2026-04-25 13:24 42.76841 23.17288 6984 ft 270 kts 272°
2026-04-25 13:24 42.76863 23.14728 6985 ft 270 kts 272°
2026-04-25 13:25 42.76705 23.12190 6991 ft 271 kts 253°
2026-04-25 13:25 42.75681 23.10037 7000 ft 277 kts 220°
2026-04-25 13:25 42.73936 23.08962 7412 ft 282 kts 191°
2026-04-25 13:25 42.71970 23.08595 8206 ft 287 kts 189°
2026-04-25 13:26 42.69982 23.08229 9038 ft 289 kts 190°
2026-04-25 13:26 42.67977 23.07851 9885 ft 292 kts 190°
2026-04-25 13:26 42.65944 23.07465 10498 ft 302 kts 190°
2026-04-25 13:26 42.63802 23.07056 10890 ft 319 kts 190°
2026-04-25 13:27 42.61547 23.06629 11247 ft 336 kts 190°
2026-04-25 13:27 42.59171 23.06180 11576 ft 353 kts 189°
2026-04-25 13:27 42.56660 23.05708 12019 ft 365 kts 189°
2026-04-25 13:27 42.54118 23.05236 12645 ft 370 kts 189°
2026-04-25 13:28 42.51563 23.04766 13313 ft 373 kts 189°
2026-04-25 13:28 42.49848 23.04452 13747 ft 376 kts 189°
2026-04-25 13:28 42.46354 23.03810 14501 ft 382 kts 189°
2026-04-25 13:28 42.43708 23.03323 15064 ft 386 kts 189°
2026-04-25 13:29 42.41033 23.02828 15622 ft 389 kts 189°
2026-04-25 13:29 42.38334 23.02327 16178 ft 393 kts 188°
2026-04-25 13:29 42.35615 23.01823 16727 ft 397 kts 188°
2026-04-25 13:30 42.30341 22.99623 17842 ft 401 kts 210°
2026-04-25 13:30 42.28041 22.97470 18370 ft 404 kts 222°
2026-04-25 13:30 42.26106 22.94712 18843 ft 405 kts 234°
2026-04-25 13:31 42.23012 22.88304 19835 ft 411 kts 238°
2026-04-25 13:31 42.21457 22.85055 20322 ft 413 kts 238°
2026-04-25 13:31 42.19888 22.81790 20803 ft 416 kts 238°
2026-04-25 13:31 42.18311 22.78505 21263 ft 419 kts 238°
2026-04-25 13:32 42.16719 22.75188 21719 ft 422 kts 238°
2026-04-25 13:32 42.15119 22.71857 22152 ft 425 kts 238°
2026-04-25 13:32 42.13509 22.68512 22575 ft 427 kts 238°
2026-04-25 13:32 42.11886 22.65146 22986 ft 430 kts 238°
2026-04-25 13:33 42.10248 22.61754 23396 ft 432 kts 238°
2026-04-25 13:33 42.08607 22.58347 23764 ft 435 kts 238°
2026-04-25 13:33 42.06961 22.54920 24079 ft 437 kts 238°
2026-04-25 13:33 42.05302 22.51474 24395 ft 440 kts 238°
2026-04-25 13:34 42.03628 22.48010 24713 ft 442 kts 238°
2026-04-25 13:34 42.01947 22.44534 25025 ft 445 kts 238°
2026-04-25 13:34 42.00231 22.40991 25335 ft 447 kts 238°
2026-04-25 13:34 41.98543 22.37468 25610 ft 449 kts 241°
2026-04-25 13:35 41.97131 22.33729 25906 ft 450 kts 248°
2026-04-25 13:35 41.95847 22.29874 26181 ft 452 kts 248°
2026-04-25 13:35 41.94554 22.26006 26468 ft 455 kts 247°
2026-04-25 13:35 41.93252 22.22129 26739 ft 457 kts 247°
2026-04-25 13:36 41.91932 22.18231 27003 ft 459 kts 247°
2026-04-25 13:36 41.90604 22.14322 27265 ft 461 kts 247°
2026-04-25 13:36 41.89272 22.10400 27520 ft 463 kts 247°
2026-04-25 13:36 41.87931 22.06445 27766 ft 465 kts 247°
2026-04-25 13:37 41.86588 22.02489 28005 ft 467 kts 247°
2026-04-25 13:37 41.85237 21.98509 28229 ft 469 kts 247°
2026-04-25 13:37 41.83886 21.94517 28447 ft 471 kts 247°
2026-04-25 13:37 41.82530 21.90512 28668 ft 473 kts 247°
2026-04-25 13:38 41.81167 21.86489 28866 ft 475 kts 247°
2026-04-25 13:38 41.79792 21.82452 29060 ft 477 kts 247°
2026-04-25 13:38 41.78411 21.78406 29284 ft 477 kts 247°
2026-04-25 13:38 41.77032 21.74371 29580 ft 477 kts 247°
2026-04-25 13:39 41.75646 21.70333 29882 ft 476 kts 247°
2026-04-25 13:39 41.74263 21.66309 30154 ft 476 kts 247°
2026-04-25 13:39 41.72878 21.62280 30381 ft 476 kts 247°
2026-04-25 13:39 41.71488 21.58249 30625 ft 476 kts 246°
2026-04-25 13:40 41.70100 21.54237 30865 ft 475 kts 247°
2026-04-25 13:40 41.68709 21.50214 31095 ft 475 kts 247°
2026-04-25 13:40 41.67324 21.46205 31325 ft 475 kts 247°
2026-04-25 13:40 41.65934 21.42190 31559 ft 475 kts 247°
2026-04-25 13:41 41.64547 21.38184 31790 ft 475 kts 247°
2026-04-25 13:41 41.63156 21.34180 32042 ft 475 kts 247°
2026-04-25 13:41 41.61761 21.30180 32299 ft 474 kts 246°
2026-04-25 13:41 41.60368 21.26190 32546 ft 474 kts 247°
2026-04-25 13:42 41.58976 21.22204 32780 ft 474 kts 247°
2026-04-25 13:42 41.57585 21.18210 33028 ft 473 kts 247°
2026-04-25 13:42 41.56197 21.14233 33273 ft 473 kts 247°
2026-04-25 13:42 41.54806 21.10259 33525 ft 472 kts 247°
2026-04-25 13:43 41.53412 21.06287 33737 ft 472 kts 247°
2026-04-25 13:43 41.52016 21.02321 33951 ft 472 kts 246°
2026-04-25 13:43 41.50622 20.98353 34026 ft 474 kts 246°
2026-04-25 13:44 41.47826 20.90386 34019 ft 474 kts 246°
2026-04-25 13:44 41.45013 20.82427 34023 ft 474 kts 246°
2026-04-25 13:45 41.42173 20.74431 34022 ft 475 kts 246°
2026-04-25 13:45 41.39346 20.66485 34019 ft 475 kts 246°
2026-04-25 13:46 41.36534 20.58591 34017 ft 475 kts 246°
2026-04-25 13:46 41.33672 20.50609 34011 ft 475 kts 244°
2026-04-25 13:47 41.30219 20.43101 33997 ft 476 kts 238°
2026-04-25 13:47 41.26640 20.35678 33989 ft 477 kts 238°
2026-04-25 13:48 41.23066 20.28252 34006 ft 478 kts 238°
2026-04-25 13:48 41.20082 20.22085 34015 ft 477 kts 238°
2026-04-25 13:49 41.16493 20.14675 34012 ft 477 kts 238°
2026-04-25 13:49 41.12900 20.07264 34011 ft 477 kts 238°
2026-04-25 13:50 41.09302 19.99860 34010 ft 478 kts 238°
2026-04-25 13:50 41.05686 19.92466 34015 ft 477 kts 238°
2026-04-25 13:51 41.02065 19.85088 34011 ft 478 kts 237°
2026-04-25 13:51 40.98453 19.77703 34009 ft 478 kts 238°
2026-04-25 13:52 40.94831 19.70315 34010 ft 479 kts 237°
2026-04-25 13:52 40.91201 19.62946 34020 ft 479 kts 237°
2026-04-25 13:53 40.87553 19.55580 34026 ft 479 kts 237°
2026-04-25 13:53 40.83902 19.48209 34035 ft 479 kts 237°
2026-04-25 13:54 40.80255 19.40841 34040 ft 479 kts 237°
2026-04-25 13:54 40.76600 19.33474 34039 ft 479 kts 237°
2026-04-25 13:55 40.72937 19.26116 34045 ft 480 kts 237°
2026-04-25 13:55 40.69257 19.18780 34043 ft 480 kts 236°
2026-04-25 13:56 40.65569 19.11442 34046 ft 480 kts 236°
2026-04-25 13:56 40.61887 19.04116 34045 ft 480 kts 236°
2026-04-25 13:57 40.58195 18.96794 34048 ft 480 kts 236°
2026-04-25 13:57 40.54458 18.89516 34044 ft 480 kts 236°
2026-04-25 13:58 40.50686 18.82259 34044 ft 480 kts 235°
2026-04-25 13:58 40.46919 18.75014 34053 ft 480 kts 235°
2026-04-25 13:59 40.43161 18.67767 34055 ft 480 kts 235°
2026-04-25 13:59 40.39395 18.60528 34050 ft 480 kts 235°
2026-04-25 14:00 40.35616 18.53300 34042 ft 480 kts 235°
2026-04-25 14:00 40.31839 18.46083 34050 ft 480 kts 235°
2026-04-25 14:01 40.28063 18.38873 34054 ft 480 kts 235°
2026-04-25 14:01 40.24279 18.31667 34066 ft 480 kts 235°
2026-04-25 14:02 40.20493 18.24473 34076 ft 479 kts 235°
2026-04-25 14:02 40.16711 18.17299 34064 ft 479 kts 235°
2026-04-25 14:03 40.12920 18.10130 34062 ft 479 kts 235°
2026-04-25 14:03 40.09105 18.02930 34063 ft 479 kts 234°
2026-04-25 14:04 40.05303 17.95790 34061 ft 478 kts 234°
2026-04-25 14:04 40.01506 17.88672 34056 ft 478 kts 234°
2026-04-25 14:05 39.97715 17.81572 34057 ft 477 kts 234°
2026-04-25 14:05 39.93921 17.74481 34053 ft 477 kts 234°
2026-04-25 14:06 39.90123 17.67398 34057 ft 477 kts 234°
2026-04-25 14:06 39.86323 17.60325 34056 ft 477 kts 234°
2026-04-25 14:07 39.82523 17.53261 34052 ft 476 kts 234°
2026-04-25 14:07 39.78720 17.46200 34058 ft 476 kts 234°
2026-04-25 14:08 39.74915 17.39162 34062 ft 475 kts 234°
2026-04-25 14:08 39.71097 17.32141 34052 ft 476 kts 234°
2026-04-25 14:09 39.67921 17.26303 34055 ft 476 kts 234°
2026-04-25 14:09 39.63465 17.18102 34059 ft 476 kts 234°
2026-04-25 14:10 39.59641 17.11093 34065 ft 476 kts 234°
2026-04-25 14:10 39.55813 17.04104 34065 ft 475 kts 234°
2026-04-25 14:11 39.51979 16.97119 34065 ft 475 kts 234°
2026-04-25 14:11 39.48145 16.90145 34058 ft 476 kts 234°
2026-04-25 14:12 39.44309 16.83166 34065 ft 475 kts 234°
2026-04-25 14:12 39.40464 16.76204 34073 ft 475 kts 234°
2026-04-25 14:13 39.36619 16.69260 34083 ft 475 kts 234°
2026-04-25 14:13 39.32777 16.62322 34092 ft 474 kts 234°
2026-04-25 14:14 39.28936 16.55403 34096 ft 474 kts 233°
2026-04-25 14:14 39.25093 16.48507 34101 ft 473 kts 233°
2026-04-25 14:15 39.21252 16.41616 34105 ft 473 kts 233°
2026-04-25 14:15 39.17380 16.34690 34110 ft 473 kts 234°
2026-04-25 14:16 39.14329 16.27209 34107 ft 473 kts 246°
2026-04-25 14:16 39.11646 16.19481 34111 ft 473 kts 245°
2026-04-25 14:17 39.08934 16.11774 34111 ft 473 kts 245°
2026-04-25 14:17 39.06220 16.04070 34112 ft 472 kts 245°
2026-04-25 14:18 39.03506 15.96385 34118 ft 471 kts 245°
2026-04-25 14:18 39.00797 15.88707 34124 ft 471 kts 245°
2026-04-25 14:19 38.98090 15.81051 34124 ft 471 kts 245°
2026-04-25 14:19 38.95372 15.73406 34124 ft 470 kts 245°
2026-04-25 14:20 38.92647 15.65760 34117 ft 470 kts 245°
2026-04-25 14:20 38.90385 15.59428 34121 ft 470 kts 245°
2026-04-25 14:21 38.87658 15.51799 34113 ft 470 kts 245°
2026-04-25 14:21 38.84928 15.44179 34116 ft 470 kts 245°
2026-04-25 14:22 38.82190 15.36572 34114 ft 469 kts 245°
2026-04-25 14:22 38.79443 15.28975 34114 ft 469 kts 245°
2026-04-25 14:23 38.76702 15.21387 34119 ft 469 kts 245°
2026-04-25 14:23 38.73964 15.13815 34122 ft 468 kts 244°
2026-04-25 14:24 38.71211 15.06259 34119 ft 468 kts 244°
2026-04-25 14:24 38.68459 14.98716 34119 ft 467 kts 244°
2026-04-25 14:25 38.65712 14.91190 34122 ft 467 kts 244°
2026-04-25 14:25 38.62947 14.83627 34123 ft 466 kts 244°
2026-04-25 14:26 38.60196 14.76130 34121 ft 465 kts 244°
2026-04-25 14:26 38.57440 14.68657 34127 ft 464 kts 244°
2026-04-25 14:27 38.54688 14.61191 34125 ft 464 kts 244°
2026-04-25 14:27 38.51930 14.53741 34126 ft 463 kts 244°
2026-04-25 14:28 38.49171 14.46298 34126 ft 463 kts 244°
2026-04-25 14:28 38.46421 14.38882 34127 ft 462 kts 244°
2026-04-25 14:29 38.43663 14.31483 34131 ft 461 kts 244°
2026-04-25 14:29 38.40901 14.24107 34128 ft 461 kts 244°
2026-04-25 14:30 38.38144 14.16736 34131 ft 460 kts 244°
2026-04-25 14:30 38.34008 14.05717 34132 ft 459 kts 244°
2026-04-25 14:31 38.31246 13.98382 34133 ft 458 kts 244°
2026-04-25 14:31 38.28482 13.91075 34134 ft 457 kts 244°
2026-04-25 14:32 38.25718 13.83788 34130 ft 457 kts 244°
2026-04-25 14:32 38.22967 13.76511 34129 ft 456 kts 244°
2026-04-25 14:33 38.20213 13.69260 34128 ft 455 kts 244°
2026-04-25 14:33 38.17451 13.62031 34132 ft 454 kts 244°
2026-04-25 14:34 38.14690 13.54814 34134 ft 453 kts 244°
2026-04-25 14:34 38.11916 13.47570 34122 ft 453 kts 244°
2026-04-25 14:35 38.09159 13.40394 34123 ft 452 kts 244°
2026-04-25 14:35 38.06401 13.33233 34122 ft 451 kts 244°
2026-04-25 14:36 38.03646 13.26078 34113 ft 451 kts 244°
2026-04-25 14:36 38.00893 13.18932 34117 ft 451 kts 244°
2026-04-25 14:37 37.98126 13.11790 34116 ft 451 kts 244°
2026-04-25 14:37 37.95356 13.04671 34116 ft 450 kts 243°
2026-04-25 14:38 37.92582 12.97550 34113 ft 450 kts 243°
2026-04-25 14:38 37.89809 12.90437 34119 ft 450 kts 243°
2026-04-25 14:39 37.87032 12.83333 34118 ft 450 kts 243°
2026-04-25 14:39 37.84249 12.76236 34119 ft 450 kts 243°
2026-04-25 14:40 37.81461 12.69141 34111 ft 451 kts 243°
2026-04-25 14:40 37.78665 12.62050 34117 ft 451 kts 243°
2026-04-25 14:41 37.75862 12.54959 34125 ft 450 kts 243°
2026-04-25 14:41 37.73061 12.47877 34128 ft 450 kts 243°
2026-04-25 14:42 37.71187 12.43149 34130 ft 450 kts 243°
2026-04-25 14:42 37.67453 12.33761 34135 ft 449 kts 243°
2026-04-25 14:43 37.64653 12.26720 34145 ft 448 kts 243°
2026-04-25 14:43 37.61855 12.19685 34140 ft 448 kts 243°
2026-04-25 14:44 37.59043 12.12665 34138 ft 448 kts 243°
2026-04-25 14:44 37.56226 12.05651 34140 ft 448 kts 243°
2026-04-25 14:45 37.53165 11.98824 34134 ft 448 kts 233°
2026-04-25 14:45 37.49097 11.92875 34123 ft 448 kts 229°
2026-04-25 14:46 37.44972 11.86988 34127 ft 448 kts 229°
2026-04-25 14:46 37.40821 11.81067 34127 ft 448 kts 229°
2026-04-25 14:47 37.38088 11.77181 34125 ft 448 kts 229°
2026-04-25 14:47 37.32571 11.69352 34124 ft 447 kts 230°
2026-04-25 14:48 37.28451 11.63497 34125 ft 447 kts 230°
2026-04-25 14:48 37.24328 11.57657 34126 ft 447 kts 230°
2026-04-25 14:49 37.20200 11.51830 34129 ft 447 kts 230°
2026-04-25 14:49 37.16077 11.46013 34131 ft 446 kts 230°
2026-04-25 14:50 37.11945 11.40220 34126 ft 446 kts 231°
2026-04-25 14:50 37.07810 11.34434 34131 ft 445 kts 231°
2026-04-25 14:51 37.04353 11.29591 34132 ft 445 kts 231°
2026-04-25 14:51 37.02292 11.26705 34015 ft 445 kts 231°
2026-04-25 14:51 37.00231 11.23824 33739 ft 445 kts 231°
2026-04-25 14:52 36.98167 11.20943 33469 ft 445 kts 231°
2026-04-25 14:52 36.96098 11.18057 33197 ft 446 kts 231°
2026-04-25 14:52 36.94028 11.15170 32932 ft 446 kts 231°
2026-04-25 14:52 36.92621 11.13290 32756 ft 448 kts 227°
2026-04-25 14:53 36.89342 11.10022 31708 ft 457 kts 215°
2026-04-25 14:53 36.86482 11.08211 30674 ft 465 kts 205°
2026-04-25 14:53 36.83372 11.06994 29410 ft 473 kts 196°
2026-04-25 14:53 36.80157 11.06044 28267 ft 475 kts 196°
2026-04-25 14:54 36.76981 11.05088 27667 ft 465 kts 196°
2026-04-25 14:54 36.73862 11.04136 26906 ft 459 kts 196°
2026-04-25 14:54 36.70778 11.03189 26190 ft 454 kts 196°
2026-04-25 14:54 36.67729 11.02255 25492 ft 449 kts 196°
2026-04-25 14:55 36.64691 11.01333 24809 ft 445 kts 196°
2026-04-25 14:55 36.61671 11.00421 24128 ft 441 kts 195°
2026-04-25 14:55 36.58700 10.99529 23427 ft 438 kts 195°
2026-04-25 14:55 36.55927 10.98697 22755 ft 433 kts 195°
2026-04-25 14:56 36.53009 10.97820 22087 ft 429 kts 195°
2026-04-25 14:56 36.50126 10.96957 21499 ft 424 kts 195°
2026-04-25 14:56 36.47278 10.96105 20968 ft 418 kts 195°
2026-04-25 14:56 36.44468 10.95263 20437 ft 413 kts 195°
2026-04-25 14:57 36.41687 10.94432 19891 ft 409 kts 195°
2026-04-25 14:57 36.38937 10.93612 19383 ft 405 kts 195°
2026-04-25 14:57 36.36269 10.92582 18893 ft 399 kts 204°
2026-04-25 14:57 36.33831 10.90993 18416 ft 393 kts 214°
2026-04-25 14:58 36.31700 10.88915 17887 ft 387 kts 225°
2026-04-25 14:58 36.29928 10.86443 17405 ft 381 kts 235°
2026-04-25 14:58 36.28478 10.83724 16937 ft 375 kts 238°
2026-04-25 14:58 36.27073 10.81022 16460 ft 371 kts 238°
2026-04-25 14:59 36.25677 10.78356 15979 ft 367 kts 238°
2026-04-25 14:59 36.24272 10.75681 15485 ft 364 kts 237°
2026-04-25 14:59 36.22897 10.73059 15004 ft 362 kts 238°
2026-04-25 14:59 36.21533 10.70454 14500 ft 360 kts 237°
2026-04-25 15:00 36.20174 10.67860 13993 ft 358 kts 237°
2026-04-25 15:00 36.18822 10.65278 13423 ft 357 kts 237°
2026-04-25 15:00 36.17475 10.62710 12912 ft 354 kts 237°
2026-04-25 15:00 36.16137 10.60165 12378 ft 352 kts 238°
2026-04-25 15:01 36.14810 10.57641 11853 ft 349 kts 238°
2026-04-25 15:01 36.13487 10.55128 11320 ft 347 kts 238°
2026-04-25 15:01 36.12176 10.52634 10795 ft 345 kts 239°
2026-04-25 15:01 36.10890 10.50192 10620 ft 332 kts 238°
2026-04-25 15:02 36.09657 10.47855 10510 ft 318 kts 239°
2026-04-25 15:02 36.08471 10.45608 10393 ft 306 kts 239°
2026-04-25 15:02 36.07360 10.43416 10197 ft 295 kts 245°
2026-04-25 15:02 36.06526 10.41131 10131 ft 292 kts 249°
2026-04-25 15:03 36.05702 10.38831 9974 ft 293 kts 249°
2026-04-25 15:03 36.04860 10.36508 9416 ft 296 kts 248°
2026-04-25 15:03 36.04003 10.34157 8762 ft 299 kts 248°
2026-04-25 15:03 36.03167 10.31863 8134 ft 292 kts 248°
2026-04-25 15:04 36.02344 10.29607 7592 ft 283 kts 247°
2026-04-25 15:04 36.01538 10.27402 7066 ft 273 kts 248°
2026-04-25 15:04 36.00774 10.25314 6781 ft 255 kts 248°
2026-04-25 15:04 36.00079 10.23416 6725 ft 230 kts 248°
2026-04-25 15:05 35.99621 10.21608 6508 ft 214 kts 267°
2026-04-25 15:05 35.99789 10.19860 6263 ft 200 kts 291°
2026-04-25 15:05 36.00504 10.18410 6085 ft 200 kts 313°
2026-04-25 15:06 36.03042 10.17117 5576 ft 206 kts 355°
2026-04-25 15:06 36.04477 10.17195 5330 ft 208 kts 11°
2026-04-25 15:06 36.05823 10.17871 5036 ft 211 kts 32°
2026-04-25 15:06 36.06890 10.19105 4733 ft 212 kts 54°
2026-04-25 15:07 36.07521 10.20733 4427 ft 210 kts 77°
2026-04-25 15:07 36.07646 10.22500 4120 ft 204 kts 92°
2026-04-25 15:07 36.07638 10.24206 3985 ft 190 kts 92°
2026-04-25 15:07 36.07635 10.25763 3869 ft 173 kts 92°
2026-04-25 15:08 36.07631 10.27181 3726 ft 156 kts 92°
2026-04-25 15:08 36.07628 10.28484 3416 ft 150 kts 93°
2026-04-25 15:08 36.07625 10.29788 3004 ft 154 kts 91°
2026-04-25 15:08 36.07630 10.31120 2585 ft 155 kts 91°
2026-04-25 15:09 36.07621 10.32442 2160 ft 153 kts 92°
2026-04-25 15:09 36.07618 10.33736 1730 ft 148 kts 91°
2026-04-25 15:09 36.07588 10.36171 1055 ft 132 kts 92°
2026-04-25 15:10 36.07588 10.37298 824 ft 130 kts 93°
2026-04-25 15:10 36.07584 10.38414 632 ft 129 kts 91°
2026-04-25 15:10 36.07586 10.40642 294 ft 129 kts 89°
2026-04-25 15:11 36.07586 10.41736 101 ft 127 kts 89°
2026-04-25 15:11 36.07586 10.42811 34 ft 117 kts 89°
2026-04-25 15:11 36.07577 10.43668 26 ft 77 kts 89°
2026-04-25 15:12 36.07606 10.44253 26 ft 22 kts 75°
2026-04-25 15:12 36.07669 10.44382 26 ft 13 kts 43°
2026-04-25 15:12 36.07740 10.44360 28 ft 12 kts 291°
2026-04-25 15:12 36.07743 10.44327 29 ft 11 kts 273°
2026-04-25 15:13 36.07745 10.44186 25 ft 9 kts 268°
2026-04-25 15:13 36.07744 10.44025 26 ft 14 kts 270°
2026-04-25 15:13 36.07787 10.43933 29 ft 13 kts 346°
2026-04-25 15:14 36.07883 10.43931 25 ft 15 kts
2026-04-25 15:14 36.07994 10.43933 29 ft 15 kts 358°
2026-04-25 15:14 36.08043 10.43850 25 ft 13 kts 271°
2026-04-25 15:14 36.08061 10.43752 29 ft 11 kts 310°
2026-04-25 15:15 36.08093 10.43763 25 ft 4 kts 57°
2026-04-25 15:15 36.08117 10.43791 28 ft 6 kts 41°
2026-04-25 15:15 36.08138 10.43813 28 ft 0 kts 40°